Time,TemperatureF,DewpointF,PressureIn,WindDirection,WindDirectionDegrees,WindSpeedMPH,WindSpeedGustMPH,Humidity,HourlyPrecipIn,Conditions,Clouds,dailyrainin,SolarRadiationWatts/m^2,SoftwareType,DateUTC
2013-11-20 00:01:00,37.4,23.5,30.07,SSW,210,9.2,9.2,57,0.00,OVC,,0.00,0.0,WeatherDisplay:10.37,2013-11-20 06:01:00,
2013-11-20 00:06:00,37.4,23.5,30.07,WSW,252,5.8,5.8,57,0.00,OVC,,0.00,0.0,WeatherDisplay:10.37,2013-11-20 06:06:00,
2013-11-20 00:11:00,37.5,23.2,30.07,SW,230,8.1,8.1,56,0.00,OVC,,0.00,0.0,WeatherDisplay:10.37,2013-11-20 06:11:00,
2013-11-20 00:16:00,34.8,22.7,30.09,ESE,103,3.5,3.5,61,0.00,OVC,,0.00,0.0,WeatherDisplay:10.37,2013-11-20 06:16:00,
2013-11-20 00:21:00,34.8,22.7,30.09,ESE,103,3.5,3.5,61,0.00,OVC,,0.00,0.0,WeatherDisplay:10.37,2013-11-20 06:21:00,
2013-11-20 00:26:00,34.8,22.7,30.09,ESE,103,3.5,3.5,61,0.00,OVC,,0.00,0.0,WeatherDisplay:10.37,2013-11-20 06:26:00,
2013-11-20 00:31:00,37.7,23.0,30.07,ESE,117,3.5,3.5,55,0.00,OVC,,0.00,0.0,WeatherDisplay:10.37,2013-11-20 06:31:00,
2013-11-20 00:36:00,37.7,23.4,30.07,SSW,212,1.1,3.9,56,0.00,OVC,,0.00,0.0,WeatherDisplay:10.37,2013-11-20 06:36:00,
2013-11-20 00:41:00,37.7,23.0,30.07,South,170,10.4,10.4,55,0.00,OVC,,0.00,0.0,WeatherDisplay:10.37,2013-11-20 06:41:00,
2013-11-20 00:46:00,37.7,23.0,30.07,SE,136,6.9,6.9,55,0.00,OVC,,0.00,0.0,WeatherDisplay:10.37,2013-11-20 06:46:00,
2013-11-20 00:51:00,37.7,23.0,30.08,SSE,160,6.9,6.9,55,0.00,OVC,,0.00,0.0,WeatherDisplay:10.37,2013-11-20 06:51:00,
2013-11-20 00:56:00,37.7,23.0,30.07,SE,142,6.9,6.9,55,0.00,OVC,,0.00,0.0,WeatherDisplay:10.37,2013-11-20 06:56:00,
2013-11-20 01:01:00,37.7,23.0,30.07,SE,139,6.9,6.9,55,0.00,OVC,,0.00,0.0,WeatherDisplay:10.37,2013-11-20 07:01:00,
2013-11-20 01:06:00,37.7,23.0,30.08,ESE,123,2.3,5.3,55,0.00,OVC,,0.00,0.0,WeatherDisplay:10.37,2013-11-20 07:06:00,
2013-11-20 01:11:00,37.7,23.0,30.08,ESE,123,2.3,5.3,55,0.00,OVC,,0.00,0.0,WeatherDisplay:10.37,2013-11-20 07:11:00,
2013-11-20 01:16:00,37.8,23.1,30.07,SSE,159,9.2,9.2,55,0.00,OVC,,0.00,0.0,WeatherDisplay:10.37,2013-11-20 07:16:00,
2013-11-20 01:22:00,37.7,23.0,30.08,ESE,123,2.3,5.3,55,0.00,OVC,,0.00,0.0,WeatherDisplay:10.37,2013-11-20 07:22:00,
2013-11-20 01:36:00,37.8,23.5,30.08,West,264,8.1,8.1,56,0.00,OVC,,0.00,0.0,WeatherDisplay:10.37,2013-11-20 07:36:00,
2013-11-20 01:41:00,37.7,23.4,30.08,SSE,157,4.6,4.6,56,0.00,OVC,,0.00,0.0,WeatherDisplay:10.37,2013-11-20 07:41:00,
2013-11-20 01:46:00,37.7,23.0,30.08,SE,138,5.8,5.8,55,0.00,OVC,,0.00,0.0,WeatherDisplay:10.37,2013-11-20 07:46:00,
2013-11-20 01:58:00,37.8,23.1,30.07,SE,142,10.4,10.4,55,0.00,OVC,,0.00,0.0,WeatherDisplay:10.37,2013-11-20 07:58:00,
2013-11-20 02:04:00,37.8,23.1,30.07,SE,144,0.0,2.0,55,0.00,OVC,,0.00,0.0,WeatherDisplay:10.37,2013-11-20 08:04:00,
2013-11-20 02:09:00,37.8,23.5,30.07,SSE,155,8.1,8.1,56,0.00,OVC,,0.00,0.0,WeatherDisplay:10.37,2013-11-20 08:09:00,
2013-11-20 02:14:00,37.8,23.5,30.08,SW,220,3.5,3.5,56,0.00,OVC,,0.00,0.0,WeatherDisplay:10.37,2013-11-20 08:14:00,
2013-11-20 02:19:00,37.9,23.6,30.07,SE,127,1.1,1.1,56,0.00,OVC,,0.00,0.0,WeatherDisplay:10.37,2013-11-20 08:19:00,
2013-11-20 02:24:00,37.8,23.5,30.07,South,175,2.3,2.7,56,0.00,OVC,,0.00,0.0,WeatherDisplay:10.37,2013-11-20 08:24:00,
2013-11-20 02:29:00,37.7,23.8,30.07,SE,125,9.0,9.0,57,0.00,OVC,,0.00,0.0,WeatherDisplay:10.37,2013-11-20 08:29:00,
2013-11-20 02:34:00,37.9,23.6,30.07,SE,127,1.1,1.1,56,0.00,OVC,,0.00,0.0,WeatherDisplay:10.37,2013-11-20 08:34:00,
2013-11-20 02:39:00,37.8,23.9,30.07,South,176,3.5,3.5,57,0.00,OVC,,0.00,0.0,WeatherDisplay:10.37,2013-11-20 08:39:00,
2013-11-20 02:44:00,37.8,23.5,30.07,SSW,202,9.2,9.2,56,0.00,OVC,,0.00,0.0,WeatherDisplay:10.37,2013-11-20 08:44:00,
2013-11-20 02:49:00,37.9,23.6,30.07,SE,127,1.1,1.1,56,0.00,OVC,,0.00,0.0,WeatherDisplay:10.37,2013-11-20 08:49:00,
2013-11-20 02:54:00,37.9,23.6,30.07,SE,127,1.1,1.1,56,0.00,OVC,,0.00,0.0,WeatherDisplay:10.37,2013-11-20 08:54:00,
2013-11-20 02:59:00,37.9,23.6,30.07,SE,127,1.1,1.1,56,0.00,OVC,,0.00,0.0,WeatherDisplay:10.37,2013-11-20 08:59:00,
2013-11-20 03:04:00,37.9,23.6,30.07,SE,127,1.1,1.1,56,0.00,OVC,,0.00,0.0,WeatherDisplay:10.37,2013-11-20 09:04:00,
2013-11-20 03:09:00,37.9,23.6,30.07,SE,127,1.1,1.1,56,0.00,OVC,,0.00,0.0,WeatherDisplay:10.37,2013-11-20 09:09:00,
2013-11-20 03:14:00,37.9,23.6,30.07,SE,127,1.1,1.1,56,0.00,OVC,,0.00,0.0,WeatherDisplay:10.37,2013-11-20 09:14:00,
2013-11-20 03:19:00,37.9,23.6,30.07,SE,127,1.1,1.1,56,0.00,OVC,,0.00,0.0,WeatherDisplay:10.37,2013-11-20 09:19:00,
2013-11-20 03:24:00,38.1,24.2,30.06,South,188,8.0,8.0,57,0.00,OVC,,0.00,0.0,WeatherDisplay:10.37,2013-11-20 09:24:00,
2013-11-20 03:29:00,37.9,23.6,30.07,SE,127,1.1,1.1,56,0.00,OVC,,0.00,0.0,WeatherDisplay:10.37,2013-11-20 09:29:00,
2013-11-20 03:34:00,38.2,23.9,30.06,SE,146,8.1,8.1,56,0.00,OVC,,0.00,0.0,WeatherDisplay:10.37,2013-11-20 09:34:00,
2013-11-20 03:39:00,38.3,24.0,30.06,SSE,160,2.3,4.8,56,0.00,OVC,,0.00,0.0,WeatherDisplay:10.37,2013-11-20 09:39:00,
2013-11-20 03:44:00,37.9,23.6,30.07,SE,127,1.1,1.1,56,0.00,OVC,,0.00,0.0,WeatherDisplay:10.37,2013-11-20 09:44:00,
2013-11-20 03:49:00,38.3,24.0,30.05,SE,146,2.3,2.3,56,0.00,OVC,,0.00,0.0,WeatherDisplay:10.37,2013-11-20 09:49:00,
2013-11-20 03:54:00,37.9,23.6,30.07,SE,127,1.1,1.1,56,0.00,OVC,,0.00,0.0,WeatherDisplay:10.37,2013-11-20 09:54:00,
2013-11-20 03:59:00,37.9,23.6,30.07,SE,127,1.1,1.1,56,0.00,OVC,,0.00,0.0,WeatherDisplay:10.37,2013-11-20 09:59:00,
2013-11-20 04:04:00,37.9,23.6,30.07,SE,127,1.1,1.1,56,0.00,OVC,,0.00,0.0,WeatherDisplay:10.37,2013-11-20 10:04:00,
2013-11-20 04:09:00,38.5,24.1,30.05,ESE,122,13.0,13.0,56,0.00,OVC,,0.00,0.0,WeatherDisplay:10.37,2013-11-20 10:09:00,
2013-11-20 04:14:00,38.6,24.2,30.04,West,281,2.3,2.3,56,0.00,OVC,,0.00,0.0,WeatherDisplay:10.37,2013-11-20 10:14:00,
2013-11-20 04:19:00,38.5,24.6,30.04,WSW,254,1.0,1.0,57,0.00,OVC,,0.00,0.0,WeatherDisplay:10.37,2013-11-20 10:19:00,
2013-11-20 04:24:00,38.6,24.2,30.04,SE,142,2.3,3.3,56,0.00,OVC,,0.00,0.0,WeatherDisplay:10.37,2013-11-20 10:24:00,
2013-11-20 04:29:00,38.6,24.2,30.04,SE,142,2.3,3.3,56,0.00,OVC,,0.00,0.0,WeatherDisplay:10.37,2013-11-20 10:29:00,
2013-11-20 04:34:00,38.5,24.6,30.03,South,173,7.0,7.0,57,0.00,OVC,,0.00,0.0,WeatherDisplay:10.37,2013-11-20 10:34:00,
2013-11-20 04:39:00,38.5,24.6,30.03,SSE,162,9.2,9.2,57,0.00,OVC,,0.00,0.0,WeatherDisplay:10.37,2013-11-20 10:39:00,
2013-11-20 04:44:00,38.4,24.5,30.03,SSW,203,15.0,15.0,57,0.00,OVC,,0.00,0.0,WeatherDisplay:10.37,2013-11-20 10:44:00,
2013-11-20 04:49:00,38.5,24.6,30.03,SSE,154,9.2,9.2,57,0.00,OVC,,0.00,0.0,WeatherDisplay:10.37,2013-11-20 10:49:00,
2013-11-20 04:54:00,38.4,24.5,30.03,SE,131,4.6,4.6,57,0.00,OVC,,0.00,0.0,WeatherDisplay:10.37,2013-11-20 10:54:00,
2013-11-20 04:59:00,38.6,24.2,30.04,SE,142,2.3,3.3,56,0.00,OVC,,0.00,0.0,WeatherDisplay:10.37,2013-11-20 10:59:00,
2013-11-20 05:04:00,38.6,24.2,30.04,SE,142,2.3,3.3,56,0.00,OVC,,0.00,0.0,WeatherDisplay:10.37,2013-11-20 11:04:00,
2013-11-20 05:09:00,38.4,24.9,30.03,SW,219,0.0,1.6,58,0.00,OVC,,0.00,0.0,WeatherDisplay:10.37,2013-11-20 11:09:00,
2013-11-20 05:14:00,38.4,24.9,30.03,SW,219,0.0,1.6,58,0.00,OVC,,0.00,0.0,WeatherDisplay:10.37,2013-11-20 11:14:00,
2013-11-20 05:19:00,38.4,24.9,30.03,SW,219,0.0,1.6,58,0.00,OVC,,0.00,0.0,WeatherDisplay:10.37,2013-11-20 11:19:00,
2013-11-20 05:24:00,38.4,24.9,30.03,South,186,11.5,11.5,58,0.00,OVC,,0.00,0.0,WeatherDisplay:10.37,2013-11-20 11:24:00,
2013-11-20 05:29:00,38.6,24.2,30.04,SE,142,2.3,3.3,56,0.00,OVC,,0.00,0.0,WeatherDisplay:10.37,2013-11-20 11:29:00,
2013-11-20 05:34:00,38.6,24.2,30.04,SE,142,2.3,3.3,56,0.00,OVC,,0.00,0.0,WeatherDisplay:10.37,2013-11-20 11:34:00,
2013-11-20 05:39:00,38.6,24.7,30.03,SSE,148,4.6,4.6,57,0.00,OVC,,0.00,0.0,WeatherDisplay:10.37,2013-11-20 11:39:00,
2013-11-20 05:44:00,38.7,24.8,30.03,ESE,109,4.6,4.6,57,0.00,OVC,,0.00,0.0,WeatherDisplay:10.37,2013-11-20 11:44:00,
2013-11-20 05:49:00,38.6,24.2,30.04,SE,142,2.3,3.3,56,0.00,OVC,,0.00,0.0,WeatherDisplay:10.37,2013-11-20 11:49:00,
2013-11-20 05:54:00,38.6,24.2,30.04,SE,142,2.3,3.3,56,0.00,OVC,,0.00,0.0,WeatherDisplay:10.37,2013-11-20 11:54:00,
2013-11-20 05:59:00,38.8,24.4,30.03,South,171,3.5,3.5,56,0.00,OVC,,0.00,0.0,WeatherDisplay:10.37,2013-11-20 11:59:00,
2013-11-20 06:04:00,38.8,24.4,30.03,South,171,3.5,3.5,56,0.00,OVC,,0.00,0.0,WeatherDisplay:10.37,2013-11-20 12:04:00,
2013-11-20 06:09:00,38.8,24.4,30.03,South,171,3.5,3.5,56,0.00,OVC,,0.00,0.0,WeatherDisplay:10.37,2013-11-20 12:09:00,
2013-11-20 06:14:00,38.8,24.4,30.02,ESE,117,13.8,13.8,56,0.00,OVC,,0.00,0.0,WeatherDisplay:10.37,2013-11-20 12:14:00,
2013-11-20 06:19:00,38.8,24.4,30.03,South,171,3.5,3.5,56,0.00,OVC,,0.00,0.0,WeatherDisplay:10.37,2013-11-20 12:19:00,
2013-11-20 06:24:00,38.8,24.4,30.03,South,171,3.5,3.5,56,0.00,OVC,,0.00,0.0,WeatherDisplay:10.37,2013-11-20 12:24:00,
2013-11-20 06:29:00,38.8,24.4,30.03,South,171,3.5,3.5,56,0.00,OVC,,0.00,0.0,WeatherDisplay:10.37,2013-11-20 12:29:00,
2013-11-20 06:34:00,38.8,24.4,30.03,South,171,3.5,3.5,56,0.00,OVC,,0.00,0.0,WeatherDisplay:10.37,2013-11-20 12:34:00,
2013-11-20 06:39:00,38.8,24.4,30.03,South,171,3.5,3.5,56,0.00,OVC,,0.00,0.0,WeatherDisplay:10.37,2013-11-20 12:39:00,
2013-11-20 06:45:00,38.8,24.4,30.03,South,171,3.5,3.5,56,0.00,OVC,,0.00,0.0,WeatherDisplay:10.37,2013-11-20 12:45:00,
2013-11-20 06:50:00,39.2,23.9,30.03,SW,230,4.6,4.6,54,0.00,OVC,,0.00,0.0,WeatherDisplay:10.37,2013-11-20 12:50:00,
2013-11-20 06:55:00,39.1,24.3,30.03,SE,131,4.6,4.6,55,0.00,OVC,,0.00,0.0,WeatherDisplay:10.37,2013-11-20 12:55:00,
2013-11-20 07:00:00,39.1,23.8,30.03,SW,221,6.0,6.0,54,0.00,OVC,,0.00,0.0,WeatherDisplay:10.37,2013-11-20 13:00:00,
2013-11-20 07:05:00,38.8,24.4,30.03,South,171,3.5,3.5,56,0.00,OVC,,0.00,0.0,WeatherDisplay:10.37,2013-11-20 13:05:00,
2013-11-20 07:10:00,39.2,23.9,30.03,SW,229,6.9,6.9,54,0.00,OVC,,0.00,0.0,WeatherDisplay:10.37,2013-11-20 13:10:00,
2013-11-20 07:15:00,38.8,24.4,30.03,South,171,3.5,3.5,56,0.00,OVC,,0.00,0.0,WeatherDisplay:10.37,2013-11-20 13:15:00,
2013-11-20 07:20:00,39.1,24.3,30.03,SE,138,9.2,9.2,55,0.00,OVC,,0.00,0.0,WeatherDisplay:10.37,2013-11-20 13:20:00,
2013-11-20 07:25:00,39.1,24.3,30.03,SE,134,11.5,11.5,55,0.00,OVC,,0.00,0.0,WeatherDisplay:10.37,2013-11-20 13:25:00,
2013-11-20 07:30:00,38.8,24.4,30.03,South,171,3.5,3.5,56,0.00,OVC,,0.00,0.0,WeatherDisplay:10.37,2013-11-20 13:30:00,
2013-11-20 07:35:00,39.1,24.7,30.04,South,172,2.3,2.6,56,0.00,OVC,,0.00,5.0,WeatherDisplay:10.37,2013-11-20 13:35:00,
2013-11-20 07:40:00,39.1,24.7,30.04,South,172,1.1,2.6,56,0.00,OVC,,0.00,5.0,WeatherDisplay:10.37,2013-11-20 13:40:00,
2013-11-20 07:45:00,39.0,25.0,30.04,SSW,207,3.0,3.0,57,0.00,OVC,,0.00,5.0,WeatherDisplay:10.37,2013-11-20 13:45:00,
2013-11-20 07:50:00,38.9,24.5,30.04,SSE,168,10.4,10.4,56,0.00,OVC,,0.00,9.0,WeatherDisplay:10.37,2013-11-20 13:50:00,
2013-11-20 07:55:00,38.9,24.9,30.04,WSW,248,6.0,6.0,57,0.00,OVC,,0.00,12.0,WeatherDisplay:10.37,2013-11-20 13:55:00,
2013-11-20 08:00:00,38.8,24.4,30.03,South,171,3.5,3.5,56,0.00,OVC,,0.00,0.0,WeatherDisplay:10.37,2013-11-20 14:00:00,
2013-11-20 08:05:00,38.9,24.9,30.04,ESE,116,4.6,4.6,57,0.00,OVC,,0.00,21.0,WeatherDisplay:10.37,2013-11-20 14:05:00,
2013-11-20 08:10:00,38.9,24.9,30.03,West,270,10.4,10.4,57,0.00,OVC,,0.00,23.0,WeatherDisplay:10.37,2013-11-20 14:10:00,
2013-11-20 08:15:00,38.9,25.4,30.04,South,175,3.5,3.5,58,0.00,OVC,,0.00,16.0,WeatherDisplay:10.37,2013-11-20 14:15:00,
2013-11-20 08:20:00,38.8,24.4,30.03,South,171,3.5,3.5,56,0.00,OVC,,0.00,0.0,WeatherDisplay:10.37,2013-11-20 14:20:00,
2013-11-20 08:25:00,39.0,25.0,30.04,SE,138,8.1,8.1,57,0.00,OVC,,0.00,21.0,WeatherDisplay:10.37,2013-11-20 14:25:00,
2013-11-20 08:30:00,38.8,24.4,30.03,South,171,3.5,3.5,56,0.00,OVC,,0.00,0.0,WeatherDisplay:10.37,2013-11-20 14:30:00,
2013-11-20 08:35:00,39.0,25.0,30.04,SE,140,3.5,3.5,57,0.00,OVC,,0.00,19.0,WeatherDisplay:10.37,2013-11-20 14:35:00,
2013-11-20 08:40:00,39.1,24.7,30.04,SSE,165,10.4,10.4,56,0.00,OVC,,0.00,19.0,WeatherDisplay:10.37,2013-11-20 14:40:00,
2013-11-20 08:45:00,38.8,24.4,30.03,South,171,3.5,3.5,56,0.00,OVC,,0.00,0.0,WeatherDisplay:10.37,2013-11-20 14:45:00,
2013-11-20 08:50:00,39.2,25.2,30.05,WNW,297,3.5,3.5,57,0.00,OVC,,0.00,14.0,WeatherDisplay:10.37,2013-11-20 14:50:00,
2013-11-20 08:55:00,39.2,24.8,30.05,SSE,152,3.5,3.6,56,0.00,OVC,,0.00,9.0,WeatherDisplay:10.37,2013-11-20 14:55:00,
2013-11-20 09:00:00,39.2,24.8,30.05,SSE,152,3.5,3.6,56,0.00,OVC,,0.00,9.0,WeatherDisplay:10.37,2013-11-20 15:00:00,
2013-11-20 09:05:00,39.2,24.8,30.05,SSE,148,4.6,4.6,56,0.00,OVC,,0.00,11.0,WeatherDisplay:10.37,2013-11-20 15:05:00,
2013-11-20 09:10:00,39.2,24.8,30.05,SSE,152,3.5,3.6,56,0.00,OVC,,0.00,9.0,WeatherDisplay:10.37,2013-11-20 15:10:00,
2013-11-20 09:15:00,39.2,24.8,30.05,SSE,152,3.5,3.6,56,0.00,OVC,,0.00,9.0,WeatherDisplay:10.37,2013-11-20 15:15:00,
2013-11-20 09:20:00,39.0,25.5,30.06,West,259,9.0,9.0,58,0.00,OVC,,0.00,14.0,WeatherDisplay:10.37,2013-11-20 15:20:00,
2013-11-20 09:25:00,39.2,24.8,30.05,SSE,152,3.5,3.6,56,0.00,OVC,,0.00,9.0,WeatherDisplay:10.37,2013-11-20 15:25:00,
2013-11-20 09:30:00,39.2,24.8,30.05,SSE,152,3.5,3.6,56,0.00,OVC,,0.00,9.0,WeatherDisplay:10.37,2013-11-20 15:30:00,
2013-11-20 09:35:00,39.2,24.8,30.05,SSE,152,3.5,3.6,56,0.00,OVC,,0.00,9.0,WeatherDisplay:10.37,2013-11-20 15:35:00,
2013-11-20 09:40:00,39.1,25.6,30.06,SE,130,3.5,3.5,58,0.00,OVC,,0.00,26.0,WeatherDisplay:10.37,2013-11-20 15:40:00,
2013-11-20 09:45:00,39.2,24.8,30.05,SSE,152,3.5,3.6,56,0.00,OVC,,0.00,9.0,WeatherDisplay:10.37,2013-11-20 15:45:00,
2013-11-20 09:50:00,39.1,25.6,30.06,South,179,7.0,7.0,58,0.00,OVC,,0.00,19.0,WeatherDisplay:10.37,2013-11-20 15:50:00,
2013-11-20 09:55:00,39.1,25.1,30.06,ESE,115,2.3,3.1,57,0.00,OVC,,0.00,19.0,WeatherDisplay:10.37,2013-11-20 15:55:00,
2013-11-20 10:00:00,39.0,25.5,30.06,SW,216,5.8,5.8,58,0.00,OVC,,0.00,19.0,WeatherDisplay:10.37,2013-11-20 16:00:00,
2013-11-20 10:05:00,39.0,25.5,30.06,SE,135,6.9,6.9,58,0.00,OVC,,0.00,19.0,WeatherDisplay:10.37,2013-11-20 16:05:00,
2013-11-20 10:10:00,39.2,24.8,30.05,SSE,152,3.5,3.6,56,0.00,OVC,,0.00,9.0,WeatherDisplay:10.37,2013-11-20 16:10:00,
2013-11-20 10:15:00,39.1,25.6,30.06,SE,140,4.6,4.6,58,0.00,OVC,,0.00,19.0,WeatherDisplay:10.37,2013-11-20 16:15:00,
2013-11-20 10:20:00,39.2,24.8,30.05,SSE,152,3.5,3.6,56,0.00,OVC,,0.00,9.0,WeatherDisplay:10.37,2013-11-20 16:20:00,
2013-11-20 10:25:00,39.2,24.8,30.05,SSE,152,3.5,3.6,56,0.00,OVC,,0.00,9.0,WeatherDisplay:10.37,2013-11-20 16:25:00,
2013-11-20 10:30:00,39.2,24.8,30.05,SSE,152,3.5,3.6,56,0.00,OVC,,0.00,9.0,WeatherDisplay:10.37,2013-11-20 16:30:00,
2013-11-20 10:35:00,39.2,24.8,30.05,SSE,152,3.5,3.6,56,0.00,OVC,,0.00,9.0,WeatherDisplay:10.37,2013-11-20 16:35:00,
2013-11-20 10:40:00,39.2,24.8,30.05,SSE,152,3.5,3.6,56,0.00,OVC,,0.00,9.0,WeatherDisplay:10.37,2013-11-20 16:40:00,
2013-11-20 10:45:00,39.2,25.6,30.06,South,169,2.3,2.3,58,0.00,OVC,,0.00,60.0,WeatherDisplay:10.37,2013-11-20 16:45:00,
2013-11-20 10:50:00,39.2,25.6,30.06,South,177,4.6,4.6,58,0.00,OVC,,0.00,58.0,WeatherDisplay:10.37,2013-11-20 16:50:00,
2013-11-20 10:55:00,39.2,25.6,30.06,South,177,4.6,4.6,58,0.00,OVC,,0.00,58.0,WeatherDisplay:10.37,2013-11-20 16:55:00,
2013-11-20 11:00:00,39.6,26.4,30.05,SE,136,5.8,5.8,59,0.00,OVC,,0.00,109.0,WeatherDisplay:10.37,2013-11-20 17:00:00,
2013-11-20 11:05:00,39.2,25.6,30.06,South,177,4.6,4.6,58,0.00,OVC,,0.00,58.0,WeatherDisplay:10.37,2013-11-20 17:05:00,
2013-11-20 11:10:00,39.2,25.6,30.06,South,177,4.6,4.6,58,0.00,OVC,,0.00,58.0,WeatherDisplay:10.37,2013-11-20 17:10:00,
2013-11-20 11:15:00,40.1,26.5,30.04,West,259,6.9,6.9,58,0.00,OVC,,0.00,137.0,WeatherDisplay:10.37,2013-11-20 17:15:00,
2013-11-20 11:20:00,40.3,26.3,30.03,SE,140,9.2,9.2,57,0.00,OVC,,0.00,148.0,WeatherDisplay:10.37,2013-11-20 17:20:00,
2013-11-20 11:25:00,40.5,26.4,30.03,SE,135,5.8,5.8,57,0.00,OVC,,0.00,146.0,WeatherDisplay:10.37,2013-11-20 17:25:00,
2013-11-20 11:30:00,40.8,26.3,30.03,South,172,5.8,5.8,56,0.00,OVC,,0.00,125.0,WeatherDisplay:10.37,2013-11-20 17:30:00,
2013-11-20 11:35:00,40.9,26.4,30.04,SSE,155,4.6,4.6,56,0.00,OVC,,0.00,121.0,WeatherDisplay:10.37,2013-11-20 17:35:00,
2013-11-20 11:40:00,39.2,25.6,30.06,South,177,4.6,4.6,58,0.00,OVC,,0.00,58.0,WeatherDisplay:10.37,2013-11-20 17:40:00,
2013-11-20 11:45:00,39.2,25.6,30.06,South,177,4.6,4.6,58,0.00,OVC,,0.00,58.0,WeatherDisplay:10.37,2013-11-20 17:45:00,
2013-11-20 11:50:00,39.2,25.6,30.06,South,177,4.6,4.6,58,0.00,OVC,,0.00,58.0,WeatherDisplay:10.37,2013-11-20 17:50:00,
2013-11-20 11:55:00,40.9,26.4,30.03,SW,215,10.4,10.4,56,0.00,OVC,,0.00,93.0,WeatherDisplay:10.37,2013-11-20 17:55:00,
2013-11-20 12:00:00,39.2,25.6,30.06,South,177,4.6,4.6,58,0.00,OVC,,0.00,58.0,WeatherDisplay:10.37,2013-11-20 18:00:00,
2013-11-20 12:06:00,39.2,25.6,30.06,South,177,4.6,4.6,58,0.00,OVC,,0.00,58.0,WeatherDisplay:10.37,2013-11-20 18:06:00,
2013-11-20 12:11:00,40.9,26.0,30.02,ESE,115,0.0,2.3,55,0.00,OVC,,0.00,91.0,WeatherDisplay:10.37,2013-11-20 18:11:00,
2013-11-20 12:16:00,40.9,26.4,30.03,SSW,194,4.0,4.8,56,0.00,OVC,,0.00,95.0,WeatherDisplay:10.37,2013-11-20 18:16:00,
2013-11-20 12:21:00,40.9,26.0,30.02,ESE,115,0.0,2.3,55,0.00,OVC,,0.00,91.0,WeatherDisplay:10.37,2013-11-20 18:21:00,
2013-11-20 12:26:00,40.9,26.0,30.02,ESE,115,0.0,2.3,55,0.00,OVC,,0.00,91.0,WeatherDisplay:10.37,2013-11-20 18:26:00,
2013-11-20 12:31:00,40.8,26.7,30.02,South,186,1.1,3.7,57,0.00,OVC,,0.00,69.0,WeatherDisplay:10.37,2013-11-20 18:31:00,
2013-11-20 12:36:00,40.6,27.0,30.03,SE,128,2.0,2.0,58,0.00,OVC,,0.00,42.0,WeatherDisplay:10.37,2013-11-20 18:36:00,
2013-11-20 12:41:00,40.5,26.9,30.03,SE,128,5.8,5.8,58,0.00,OVC,,0.00,35.0,WeatherDisplay:10.37,2013-11-20 18:41:00,
2013-11-20 12:46:00,40.4,26.8,30.03,East,101,8.1,8.1,58,0.00,OVC,,0.00,37.0,WeatherDisplay:10.37,2013-11-20 18:46:00,
2013-11-20 12:51:00,40.9,26.0,30.02,ESE,115,0.0,2.3,55,0.00,OVC,,0.00,91.0,WeatherDisplay:10.37,2013-11-20 18:51:00,
2013-11-20 12:56:00,40.9,26.0,30.02,ESE,115,0.0,2.3,55,0.00,OVC,,0.00,91.0,WeatherDisplay:10.37,2013-11-20 18:56:00,
2013-11-20 13:01:00,39.9,27.5,30.02,WSW,238,3.5,3.5,61,0.00,OVC,,0.00,35.0,WeatherDisplay:10.37,2013-11-20 19:01:00,
2013-11-20 13:06:00,39.9,27.5,30.02,WSW,238,0.0,0.8,61,0.00,OVC,,0.00,35.0,WeatherDisplay:10.37,2013-11-20 19:06:00,
2013-11-20 13:11:00,39.9,27.5,30.02,WSW,238,0.0,0.8,61,0.00,OVC,,0.00,35.0,WeatherDisplay:10.37,2013-11-20 19:11:00,
2013-11-20 13:16:00,39.9,27.5,30.02,WSW,238,0.0,0.8,61,0.00,OVC,,0.00,35.0,WeatherDisplay:10.37,2013-11-20 19:16:00,
2013-11-20 13:21:00,39.5,27.5,30.02,SSE,157,10.4,10.4,62,0.00,OVC,,0.00,42.0,WeatherDisplay:10.37,2013-11-20 19:21:00,
2013-11-20 13:26:00,39.5,27.5,30.02,SW,222,11.5,11.5,62,0.00,OVC,,0.00,47.0,WeatherDisplay:10.37,2013-11-20 19:26:00,
2013-11-20 13:31:00,39.9,27.5,30.02,WSW,238,0.0,0.8,61,0.00,OVC,,0.00,35.0,WeatherDisplay:10.37,2013-11-20 19:31:00,
2013-11-20 13:36:00,39.5,27.9,30.02,WSW,248,5.0,5.0,63,0.00,OVC,,0.00,49.0,WeatherDisplay:10.37,2013-11-20 19:36:00,
2013-11-20 13:41:00,39.6,28.0,30.02,South,169,11.5,11.5,63,0.00,OVC,,0.00,47.0,WeatherDisplay:10.37,2013-11-20 19:41:00,
2013-11-20 13:46:00,39.9,27.5,30.02,WSW,238,0.0,0.8,61,0.00,OVC,,0.00,35.0,WeatherDisplay:10.37,2013-11-20 19:46:00,
2013-11-20 13:51:00,39.6,28.8,30.03,ESE,111,2.3,2.3,65,0.00,OVC,,0.00,32.0,WeatherDisplay:10.37,2013-11-20 19:51:00,
2013-11-20 13:56:00,39.6,28.8,30.03,SSW,206,2.3,2.3,65,0.00,OVC,,0.00,28.0,WeatherDisplay:10.37,2013-11-20 19:56:00,
2013-11-20 14:01:00,39.5,29.4,30.03,South,173,6.9,6.9,67,0.00,OVC,,0.00,26.0,WeatherDisplay:10.37,2013-11-20 20:01:00,
2013-11-20 14:06:00,39.2,29.5,30.03,SSW,209,4.0,4.0,68,0.00,OVC,,0.00,26.0,WeatherDisplay:10.37,2013-11-20 20:06:00,
2013-11-20 14:11:00,39.6,28.8,30.03,ESE,111,0.0,0.5,65,0.00,OVC,,0.00,32.0,WeatherDisplay:10.37,2013-11-20 20:11:00,
2013-11-20 14:16:00,39.0,29.7,30.03,SE,146,0.0,1.0,69,0.00,OVC,,0.00,21.0,WeatherDisplay:10.37,2013-11-20 20:16:00,
2013-11-20 14:21:00,39.6,28.8,30.03,ESE,111,0.0,0.5,65,0.00,OVC,,0.00,32.0,WeatherDisplay:10.37,2013-11-20 20:21:00,
2013-11-20 14:26:00,39.0,29.7,30.03,SE,146,0.0,1.0,69,0.00,OVC,,0.00,21.0,WeatherDisplay:10.37,2013-11-20 20:26:00,
2013-11-20 14:31:00,39.0,29.7,30.03,SE,146,0.0,1.0,69,0.00,OVC,,0.00,21.0,WeatherDisplay:10.37,2013-11-20 20:31:00,
2013-11-20 14:36:00,39.6,28.8,30.03,ESE,111,0.0,0.5,65,0.00,OVC,,0.00,32.0,WeatherDisplay:10.37,2013-11-20 20:36:00,
2013-11-20 14:41:00,39.6,28.8,30.03,ESE,111,0.0,0.5,65,0.00,OVC,,0.00,32.0,WeatherDisplay:10.37,2013-11-20 20:41:00,
2013-11-20 14:46:00,38.2,30.6,30.03,SSW,203,2.3,0.0,74,0.00,OVC,,0.00,9.0,WeatherDisplay:10.37,2013-11-20 20:46:00,
2013-11-20 14:51:00,37.8,30.9,30.03,South,175,9.2,9.2,76,0.00,OVC,,0.00,5.0,WeatherDisplay:10.37,2013-11-20 20:51:00,
2013-11-20 14:56:00,38.2,30.6,30.03,SSW,203,2.3,0.0,74,0.00,OVC,,0.00,9.0,WeatherDisplay:10.37,2013-11-20 20:56:00,
2013-11-20 15:01:00,37.1,31.2,30.03,SSW,198,6.0,6.0,79,0.00,OVC,,0.00,5.0,WeatherDisplay:10.37,2013-11-20 21:01:00,
2013-11-20 15:06:00,36.8,30.9,30.03,South,175,5.8,5.8,79,0.00,OVC,,0.00,5.0,WeatherDisplay:10.37,2013-11-20 21:06:00,
2013-11-20 15:11:00,36.7,30.8,30.04,SE,143,6.0,6.0,79,0.00,OVC,,0.00,5.0,WeatherDisplay:10.37,2013-11-20 21:11:00,
2013-11-20 15:16:00,36.4,30.8,30.03,SSE,161,8.1,8.1,80,0.00,OVC,,0.00,5.0,WeatherDisplay:10.37,2013-11-20 21:16:00,
2013-11-20 15:21:00,36.5,30.9,30.03,SE,131,3.5,3.5,80,0.00,OVC,,0.00,5.0,WeatherDisplay:10.37,2013-11-20 21:21:00,
2013-11-20 15:26:00,36.5,30.9,30.03,SE,131,3.5,3.5,80,0.00,OVC,,0.00,5.0,WeatherDisplay:10.37,2013-11-20 21:26:00,
2013-11-20 15:31:00,36.5,30.9,30.03,SE,131,3.5,3.5,80,0.00,OVC,,0.00,5.0,WeatherDisplay:10.37,2013-11-20 21:31:00,
2013-11-20 15:36:00,36.0,31.0,30.04,SE,135,4.6,4.6,82,0.00,OVC,,0.00,0.0,WeatherDisplay:10.37,2013-11-20 21:36:00,
2013-11-20 15:41:00,36.0,31.0,30.04,SSW,211,5.8,5.8,82,0.00,OVC,,0.00,0.0,WeatherDisplay:10.37,2013-11-20 21:41:00,
2013-11-20 15:46:00,36.5,30.9,30.03,SE,131,3.5,3.5,80,0.00,OVC,,0.00,5.0,WeatherDisplay:10.37,2013-11-20 21:46:00,
2013-11-20 15:51:00,36.5,30.9,30.03,SE,131,3.5,3.5,80,0.00,OVC,,0.00,5.0,WeatherDisplay:10.37,2013-11-20 21:51:00,
2013-11-20 15:56:00,35.8,30.8,30.03,SE,133,5.0,5.0,82,0.00,OVC,,0.00,0.0,WeatherDisplay:10.37,2013-11-20 21:56:00,
2013-11-20 16:01:00,36.5,30.9,30.03,SE,131,3.5,3.5,80,0.00,OVC,,0.00,5.0,WeatherDisplay:10.37,2013-11-20 22:01:00,
2013-11-20 16:06:00,36.5,30.9,30.03,SE,131,3.5,3.5,80,0.00,OVC,,0.00,5.0,WeatherDisplay:10.37,2013-11-20 22:06:00,
2013-11-20 16:11:00,36.5,30.9,30.03,SE,131,3.5,3.5,80,0.00,OVC,,0.00,5.0,WeatherDisplay:10.37,2013-11-20 22:11:00,
2013-11-20 16:16:00,35.5,31.1,30.04,South,185,10.0,10.0,84,0.00,OVC,,0.00,0.0,WeatherDisplay:10.37,2013-11-20 22:16:00,
2013-11-20 16:21:00,36.5,30.9,30.03,SE,131,3.5,3.5,80,0.00,OVC,,0.00,5.0,WeatherDisplay:10.37,2013-11-20 22:21:00,
2013-11-20 16:26:00,36.5,30.9,30.03,SE,131,3.5,3.5,80,0.00,OVC,,0.00,5.0,WeatherDisplay:10.37,2013-11-20 22:26:00,
2013-11-20 16:31:00,35.3,30.9,30.04,SE,142,8.1,8.1,84,0.00,OVC,,0.00,0.0,WeatherDisplay:10.37,2013-11-20 22:31:00,
2013-11-20 16:36:00,36.5,30.9,30.03,SE,131,3.5,3.5,80,0.00,OVC,,0.00,5.0,WeatherDisplay:10.37,2013-11-20 22:36:00,
2013-11-20 16:41:00,35.3,31.2,30.04,SE,139,4.6,4.6,85,0.00,OVC,,0.00,0.0,WeatherDisplay:10.37,2013-11-20 22:41:00,
2013-11-20 16:46:00,35.3,31.2,30.04,SE,134,5.8,5.8,85,0.00,OVC,,0.00,0.0,WeatherDisplay:10.37,2013-11-20 22:46:00,
2013-11-20 16:51:00,35.3,31.2,30.04,SE,134,5.8,5.8,85,0.00,OVC,,0.00,0.0,WeatherDisplay:10.37,2013-11-20 22:51:00,
2013-11-20 16:56:00,35.3,31.2,30.04,SE,134,5.8,5.8,85,0.00,OVC,,0.00,0.0,WeatherDisplay:10.37,2013-11-20 22:56:00,
2013-11-20 17:01:00,35.0,31.2,30.04,SSE,162,3.5,3.5,86,0.00,OVC,,0.00,0.0,WeatherDisplay:10.37,2013-11-20 23:01:00,
2013-11-20 17:06:00,35.3,31.2,30.04,SE,134,5.8,5.8,85,0.00,OVC,,0.00,0.0,WeatherDisplay:10.37,2013-11-20 23:06:00,
2013-11-20 17:11:00,35.0,31.5,30.05,South,170,6.9,6.9,87,0.00,OVC,,0.00,0.0,WeatherDisplay:10.37,2013-11-20 23:11:00,
2013-11-20 17:16:00,34.8,31.6,30.04,SSE,150,6.9,6.9,88,0.00,OVC,,0.00,0.0,WeatherDisplay:10.37,2013-11-20 23:16:00,
2013-11-20 17:21:00,34.8,31.6,30.04,SSE,162,4.0,4.0,88,0.00,OVC,,0.00,0.0,WeatherDisplay:10.37,2013-11-20 23:21:00,
2013-11-20 17:26:00,34.7,31.5,30.04,SSE,155,5.8,5.8,88,0.00,OVC,,0.00,0.0,WeatherDisplay:10.37,2013-11-20 23:26:00,
2013-11-20 17:31:00,35.3,31.2,30.04,SE,134,5.8,5.8,85,0.00,OVC,,0.00,0.0,WeatherDisplay:10.37,2013-11-20 23:31:00,
2013-11-20 17:36:00,34.7,31.8,30.04,SE,125,3.5,3.5,89,0.00,OVC,,0.00,0.0,WeatherDisplay:10.37,2013-11-20 23:36:00,
2013-11-20 17:42:00,35.3,31.2,30.04,SE,134,5.8,5.8,85,0.00,OVC,,0.00,0.0,WeatherDisplay:10.37,2013-11-20 23:42:00,
2013-11-20 17:47:00,34.7,31.8,30.04,South,186,5.8,5.8,89,0.00,OVC,,0.00,0.0,WeatherDisplay:10.37,2013-11-20 23:47:00,
2013-11-20 17:52:00,34.6,31.7,30.04,SE,131,6.9,6.9,89,0.00,OVC,,0.00,0.0,WeatherDisplay:10.37,2013-11-20 23:52:00,
2013-11-20 17:57:00,35.3,31.2,30.04,SE,134,5.8,5.8,85,0.00,OVC,,0.00,0.0,WeatherDisplay:10.37,2013-11-20 23:57:00,
2013-11-20 18:02:00,34.6,31.7,30.04,NW,319,5.8,5.8,89,0.00,OVC,,0.00,0.0,WeatherDisplay:10.37,2013-11-21 00:02:00,
2013-11-20 18:07:00,34.6,31.7,30.04,SE,136,3.0,3.0,89,0.00,OVC,,0.00,0.0,WeatherDisplay:10.37,2013-11-21 00:07:00,
2013-11-20 18:12:00,35.3,31.2,30.04,SE,134,5.8,5.8,85,0.00,OVC,,0.00,0.0,WeatherDisplay:10.37,2013-11-21 00:12:00,
2013-11-20 18:17:00,34.4,31.8,30.04,SSE,162,3.5,3.5,90,0.00,OVC,,0.00,0.0,WeatherDisplay:10.37,2013-11-21 00:17:00,
2013-11-20 18:22:00,34.3,31.7,30.05,SSE,154,2.3,2.3,90,0.00,OVC,,0.00,0.0,WeatherDisplay:10.37,2013-11-21 00:22:00,
2013-11-20 18:27:00,34.3,31.9,30.05,SE,132,2.3,2.3,91,0.01,RA,,0.01,0.0,WeatherDisplay:10.37,2013-11-21 00:27:00,
2013-11-20 18:32:00,35.3,31.2,30.04,SE,134,5.8,5.8,85,0.00,OVC,,0.00,0.0,WeatherDisplay:10.37,2013-11-21 00:32:00,
2013-11-20 18:37:00,34.2,31.8,30.05,SW,215,2.3,2.3,91,0.01,RA,,0.01,0.0,WeatherDisplay:10.37,2013-11-21 00:37:00,
2013-11-20 18:42:00,34.2,31.8,30.05,SSE,150,1.1,1.1,91,0.01,OVC,,0.01,0.0,WeatherDisplay:10.37,2013-11-21 00:42:00,
2013-11-20 18:47:00,34.2,31.8,30.05,SSE,163,0.0,0.0,91,0.01,OVC,,0.01,0.0,WeatherDisplay:10.37,2013-11-21 00:47:00,
2013-11-20 18:52:00,35.3,31.2,30.04,SE,134,5.8,5.8,85,0.00,OVC,,0.00,0.0,WeatherDisplay:10.37,2013-11-21 00:52:00,
2013-11-20 18:57:00,35.3,31.2,30.04,SE,134,5.8,5.8,85,0.00,OVC,,0.00,0.0,WeatherDisplay:10.37,2013-11-21 00:57:00,
2013-11-20 19:02:00,35.3,31.2,30.04,SE,134,5.8,5.8,85,0.00,OVC,,0.00,0.0,WeatherDisplay:10.37,2013-11-21 01:02:00,
2013-11-20 19:07:00,35.3,31.2,30.04,SE,134,5.8,5.8,85,0.00,OVC,,0.00,0.0,WeatherDisplay:10.37,2013-11-21 01:07:00,
2013-11-20 19:12:00,34.1,32.0,30.05,SSE,153,0.0,0.0,92,0.01,OVC,,0.01,0.0,WeatherDisplay:10.37,2013-11-21 01:12:00,
2013-11-20 19:17:00,35.3,31.2,30.04,SE,134,5.8,5.8,85,0.00,OVC,,0.00,0.0,WeatherDisplay:10.37,2013-11-21 01:17:00,
2013-11-20 19:22:00,34.2,31.8,30.06,WSW,238,1.1,0.0,91,0.01,OVC,,0.01,0.0,WeatherDisplay:10.37,2013-11-21 01:22:00,
2013-11-20 19:27:00,35.3,31.2,30.04,SE,134,5.8,5.8,85,0.00,OVC,,0.00,0.0,WeatherDisplay:10.37,2013-11-21 01:27:00,
2013-11-20 19:32:00,35.3,31.2,30.04,SE,134,5.8,5.8,85,0.00,OVC,,0.00,0.0,WeatherDisplay:10.37,2013-11-21 01:32:00,
2013-11-20 19:37:00,34.2,31.8,30.06,WSW,238,5.8,5.8,91,0.00,OVC,,0.01,0.0,WeatherDisplay:10.37,2013-11-21 01:37:00,
2013-11-20 19:42:00,34.3,31.9,30.07,SE,144,0.0,0.2,91,0.00,OVC,,0.01,0.0,WeatherDisplay:10.37,2013-11-21 01:42:00,
2013-11-20 19:47:00,34.3,31.9,30.07,SSE,156,2.3,2.3,91,0.00,OVC,,0.01,0.0,WeatherDisplay:10.37,2013-11-21 01:47:00,
2013-11-20 19:52:00,34.3,31.9,30.06,WSW,238,0.0,5.6,91,0.01,OVC,,0.01,0.0,WeatherDisplay:10.37,2013-11-21 01:52:00,
2013-11-20 19:57:00,34.4,32.0,30.07,SSE,156,0.0,0.0,91,0.00,OVC,,0.01,0.0,WeatherDisplay:10.37,2013-11-21 01:57:00,
2013-11-20 20:02:00,34.4,32.0,30.07,SE,135,4.6,4.6,91,0.00,OVC,,0.01,0.0,WeatherDisplay:10.37,2013-11-21 02:02:00,
2013-11-20 20:07:00,34.4,32.0,30.07,SSE,156,0.0,0.0,91,0.01,OVC,,0.01,0.0,WeatherDisplay:10.37,2013-11-21 02:07:00,
2013-11-20 20:12:00,34.5,31.9,30.07,SE,135,0.0,0.0,90,0.00,OVC,,0.01,0.0,WeatherDisplay:10.37,2013-11-21 02:12:00,
2013-11-20 20:17:00,34.4,32.0,30.07,SSE,156,0.0,0.0,91,0.01,OVC,,0.01,0.0,WeatherDisplay:10.37,2013-11-21 02:17:00,
2013-11-20 20:22:00,34.6,32.0,30.08,SE,146,0.0,0.0,90,0.00,OVC,,0.01,0.0,WeatherDisplay:10.37,2013-11-21 02:22:00,
2013-11-20 20:27:00,34.4,32.0,30.07,SSE,156,0.0,0.0,91,0.01,OVC,,0.01,0.0,WeatherDisplay:10.37,2013-11-21 02:27:00,
2013-11-20 20:32:00,34.4,32.0,30.07,SSE,156,0.0,0.0,91,0.01,OVC,,0.01,0.0,WeatherDisplay:10.37,2013-11-21 02:32:00,
2013-11-20 20:37:00,34.6,32.0,30.08,SE,146,3.5,3.5,90,0.00,OVC,,0.01,0.0,WeatherDisplay:10.37,2013-11-21 02:37:00,
2013-11-20 20:42:00,34.4,32.0,30.07,SSE,156,0.0,0.0,91,0.01,OVC,,0.01,0.0,WeatherDisplay:10.37,2013-11-21 02:42:00,
2013-11-20 20:47:00,34.6,32.0,30.08,SSE,165,1.1,1.1,90,0.00,OVC,,0.01,0.0,WeatherDisplay:10.37,2013-11-21 02:47:00,
2013-11-20 20:52:00,34.6,32.0,30.08,SSE,163,1.1,0.0,90,0.00,OVC,,0.01,0.0,WeatherDisplay:10.37,2013-11-21 02:52:00,
2013-11-20 20:57:00,34.6,32.0,30.08,SSE,163,1.1,1.1,90,0.00,OVC,,0.01,0.0,WeatherDisplay:10.37,2013-11-21 02:57:00,
2013-11-20 21:02:00,34.4,32.0,30.07,SSE,156,0.0,0.0,91,0.00,OVC,,0.01,0.0,WeatherDisplay:10.37,2013-11-21 03:02:00,
2013-11-20 21:07:00,34.4,32.0,30.07,SSE,156,0.0,0.0,91,0.00,OVC,,0.01,0.0,WeatherDisplay:10.37,2013-11-21 03:07:00,
2013-11-20 21:12:00,34.6,32.0,30.08,SSE,148,0.0,0.0,90,0.00,OVC,,0.01,0.0,WeatherDisplay:10.37,2013-11-21 03:12:00,
2013-11-20 21:17:00,34.6,32.0,30.08,SSE,148,0.0,0.0,90,0.00,OVC,,0.01,0.0,WeatherDisplay:10.37,2013-11-21 03:17:00,
2013-11-20 21:22:00,34.6,32.2,30.08,SSE,148,1.1,0.0,91,0.00,OVC,,0.01,0.0,WeatherDisplay:10.37,2013-11-21 03:22:00,
2013-11-20 21:27:00,34.6,32.0,30.08,South,175,0.0,0.0,90,0.00,OVC,,0.01,0.0,WeatherDisplay:10.37,2013-11-21 03:27:00,
2013-11-20 21:32:00,34.6,32.2,30.08,SSE,148,1.1,0.0,91,0.00,OVC,,0.01,0.0,WeatherDisplay:10.37,2013-11-21 03:32:00,
2013-11-20 21:37:00,34.6,32.2,30.08,South,175,0.0,0.0,91,0.00,OVC,,0.01,0.0,WeatherDisplay:10.37,2013-11-21 03:37:00,
2013-11-20 21:42:00,34.6,32.2,30.08,South,175,0.0,0.6,91,0.00,OVC,,0.01,0.0,WeatherDisplay:10.37,2013-11-21 03:42:00,
2013-11-20 21:47:00,34.6,32.2,30.08,South,175,0.0,0.0,91,0.00,OVC,,0.01,0.0,WeatherDisplay:10.37,2013-11-21 03:47:00,
2013-11-20 21:52:00,34.6,32.2,30.07,South,175,0.0,0.0,91,0.00,OVC,,0.01,0.0,WeatherDisplay:10.37,2013-11-21 03:52:00,
2013-11-20 21:57:00,34.6,32.2,30.07,South,175,0.0,0.0,91,0.00,OVC,,0.01,0.0,WeatherDisplay:10.37,2013-11-21 03:57:00,
2013-11-20 22:02:00,34.6,32.2,30.07,South,175,2.3,2.3,91,0.00,OVC,,0.01,0.0,WeatherDisplay:10.37,2013-11-21 04:02:00,
2013-11-20 22:07:00,34.6,32.2,30.08,South,175,0.0,0.6,91,0.00,OVC,,0.01,0.0,WeatherDisplay:10.37,2013-11-21 04:07:00,
2013-11-20 22:12:00,34.6,32.2,30.08,South,175,0.0,0.0,91,0.00,OVC,,0.01,0.0,WeatherDisplay:10.37,2013-11-21 04:12:00,
2013-11-20 22:17:00,34.7,32.3,30.08,South,175,1.1,1.1,91,0.00,OVC,,0.01,0.0,WeatherDisplay:10.37,2013-11-21 04:17:00,
2013-11-20 22:22:00,34.6,32.0,30.08,South,175,0.0,0.0,90,0.00,OVC,,0.01,0.0,WeatherDisplay:10.37,2013-11-21 04:22:00,
2013-11-20 22:27:00,34.6,32.2,30.08,South,175,1.1,0.0,91,0.00,OVC,,0.01,0.0,WeatherDisplay:10.37,2013-11-21 04:27:00,
2013-11-20 22:32:00,34.6,32.2,30.08,SSE,162,3.5,3.5,91,0.00,OVC,,0.01,0.0,WeatherDisplay:10.37,2013-11-21 04:32:00,
2013-11-20 22:37:00,34.6,32.2,30.08,SSE,152,2.3,2.3,91,0.00,OVC,,0.01,0.0,WeatherDisplay:10.37,2013-11-21 04:37:00,
2013-11-20 22:42:00,34.6,32.2,30.08,South,175,0.0,0.0,91,0.00,OVC,,0.01,0.0,WeatherDisplay:10.37,2013-11-21 04:42:00,
2013-11-20 22:47:00,34.6,32.0,30.08,SSE,152,0.0,0.0,90,0.00,OVC,,0.01,0.0,WeatherDisplay:10.37,2013-11-21 04:47:00,
2013-11-20 22:52:00,34.6,32.2,30.08,South,175,0.0,0.0,91,0.00,OVC,,0.01,0.0,WeatherDisplay:10.37,2013-11-21 04:52:00,
2013-11-20 22:57:00,34.7,32.1,30.09,SSE,152,0.0,0.0,90,0.00,OVC,,0.01,0.0,WeatherDisplay:10.37,2013-11-21 04:57:00,
2013-11-20 23:01:00,34.7,32.1,30.09,SSE,152,0.0,0.0,90,0.00,OVC,,0.01,0.0,WeatherDisplay:10.37,2013-11-21 05:01:00,
2013-11-20 23:06:00,34.6,32.2,30.08,South,175,0.0,0.0,91,0.00,OVC,,0.01,0.0,WeatherDisplay:10.37,2013-11-21 05:06:00,
2013-11-20 23:11:00,34.7,32.3,30.09,SSE,152,0.0,0.0,91,0.00,OVC,,0.01,0.0,WeatherDisplay:10.37,2013-11-21 05:11:00,
2013-11-20 23:16:00,34.6,32.2,30.08,South,175,0.0,0.0,91,0.00,OVC,,0.01,0.0,WeatherDisplay:10.37,2013-11-21 05:16:00,
2013-11-20 23:21:00,34.7,32.1,30.09,ESE,119,1.1,0.0,90,0.00,OVC,,0.01,0.0,WeatherDisplay:10.37,2013-11-21 05:21:00,
2013-11-20 23:26:00,34.6,32.2,30.08,South,175,0.0,0.0,91,0.00,OVC,,0.01,0.0,WeatherDisplay:10.37,2013-11-21 05:26:00,
2013-11-20 23:31:00,34.6,32.2,30.08,South,175,0.0,0.0,91,0.00,OVC,,0.01,0.0,WeatherDisplay:10.37,2013-11-21 05:31:00,
2013-11-20 23:36:00,34.7,32.1,30.09,SSE,159,0.0,0.0,90,0.00,OVC,,0.01,0.0,WeatherDisplay:10.37,2013-11-21 05:36:00,
2013-11-20 23:41:00,34.7,32.1,30.09,SSE,159,0.0,0.0,90,0.00,OVC,,0.01,0.0,WeatherDisplay:10.37,2013-11-21 05:41:00,
2013-11-20 23:46:00,34.7,32.1,30.09,SSE,159,0.0,0.0,90,0.00,OVC,,0.01,0.0,WeatherDisplay:10.37,2013-11-21 05:46:00,
2013-11-20 23:51:00,34.7,32.1,30.09,SSE,159,0.0,0.0,90,0.00,OVC,,0.01,0.0,WeatherDisplay:10.37,2013-11-21 05:51:00,
2013-11-20 23:56:00,34.7,32.1,30.09,SSE,159,0.0,0.0,90,0.00,OVC,,0.01,0.0,WeatherDisplay:10.37,2013-11-21 05:56:00,
2013-11-20 23:57:00,34.7,32.1,30.09,SSE,159,0.0,0.0,90,0.00,OVC,,0.01,0.0,WeatherDisplay:10.37,2013-11-21 05:57:00,